DW7214 Weather Reports


time (UTC)temp
C
wind
direction
speed
KPH
gust
KPH
rain 1hr
cm
rain 24hr
cm
rain mn
cm
humidity
%
barometer
mb
20260507203016 18 190 1.6 8.0 0.00 0.00 0.00 56 1019.8
20260507201522 18 32 1.6 6.4 0.00 0.00 0.00 56 1020.1
20260507200022 17 65 3.2 9.7 0.00 0.00 0.00 58 1020.2
20260507194522 17 184 6.4 11.3 0.00 0.00 0.00 56 1020.3
20260507193028 17 53 1.6 9.7 0.00 0.00 0.00 58 1020.5
20260507191521 17 86 3.2 9.7 0.00 0.00 0.00 62 1020.7
20260507190021 16 120 1.6 12.9 0.00 0.00 0.00 59 1020.8
20260507184524 16 225 3.2 8.0 0.00 0.00 0.00 62 1020.9
20260507183026 15 344 3.2 8.0 0.00 0.00 0.00 63 1021.0
20260507181525 15 333 1.6 6.4 0.00 0.00 0.00 64 1021.1
20260507180024 15 338 1.6 4.8 0.00 0.00 0.00 65 1021.3
20260507174537 15 209 1.6 3.2 0.00 0.00 0.00 66 1021.5
20260507173030 13 54 1.6 6.4 0.00 0.00 0.00 72 1021.6
20260507171525 13 101 1.6 8.0 0.00 0.00 0.00 72 1021.6
20260507170036 13 337 1.6 11.3 0.00 0.00 0.00 73 1021.6
20260507164522 12 319 3.2 9.7 0.00 0.00 0.00 73 1021.7
20260507163026 12 352 3.2 9.7 0.00 0.00 0.00 1021.8
20260507161526 12 5 4.8 12.9 0.00 0.00 0.00 1021.7
20260507160026 12 293 1.6 9.7 0.00 0.00 0.00 73 1021.7
20260507154523 12 317 3.2 12.9 0.00 0.00 0.00 73 1021.7
20260507153025 12 286 3.2 9.7 0.00 0.00 0.00 74 1021.7
20260507151526 11 332 1.6 6.4 0.00 0.00 0.00 76 1021.8
20260507150016 11 287 3.2 9.7 0.00 0.00 0.00 75 1021.8
20260507144520 11 334 3.2 6.4 0.00 0.00 0.00 75 1021.8
20260507143028 11 323 0.0 4.8 0.00 0.00 0.00 77 1021.7
20260507141525 11 298 1.6 3.2 0.00 0.00 0.00 77 1021.7
20260507140030 11 309 1.6 3.2 0.00 0.00 0.00 78 1021.6
20260507134520 11 327 0.0 3.2 0.00 0.00 0.00 78 1021.5
20260507133023 11 328 0.0 3.2 0.00 0.00 0.00 78 1021.2
20260507131535 11 331 0.0 3.2 0.00 0.00 0.00 77 1021.3
20260507130025 11 304 1.6 3.2 0.00 0.00 0.00 77 1021.3
20260507124521 11 301 0.0 3.2 0.00 0.00 0.00 78 1021.3
20260507123024 11 277 0.0 3.2 0.00 0.00 0.00 79 1021.4
20260507121526 11 281 0.0 3.2 0.00 0.00 0.00 79 1021.4
20260507120023 11 286 0.0 3.2 0.00 0.00 0.00 79 1021.6
20260507114515 11 279 0.0 3.2 0.00 0.00 0.00 78 1021.7
20260507113024 11 278 0.0 3.2 0.00 0.00 0.00 79 1021.7
20260507111507 11 284 0.0 3.2 0.00 0.00 0.00 79 1021.8
20260507110008 11 286 0.0 3.2 0.00 0.00 0.00 79 1021.9
20260507104516 11 294 0.0 3.2 0.00 0.00 0.00 79 1021.9
20260507103019 11 286 0.0 3.2 0.00 0.00 0.00 79 1022.0
20260507101524 12 315 0.0 3.2 0.00 0.00 0.00 79 1022.0
20260507100008 12 289 0.0 3.2 0.00 0.00 0.00 78 1022.1
20260507094512 12 279 1.6 3.2 0.00 0.00 0.00 78 1022.2
20260507093018 12 281 0.0 3.2 0.00 0.00 0.00 79 1022.2
20260507091524 12 286 0.0 3.2 0.00 0.00 0.00 78 1022.4
20260507090026 12 281 1.6 3.2 0.00 0.00 0.00 79 1022.5
20260507084513 12 331 1.6 3.2 0.00 0.00 0.00 78 1022.5
20260507083016 12 337 1.6 3.2 0.00 0.00 0.00 78 1022.5
20260507081534 12 275 0.0 4.8 0.00 0.00 0.00 78 1022.4
20260507080022 12 349 3.2 9.7 0.00 0.00 0.00 78 1022.4
20260507074544 12 360 3.2 8.0 0.00 0.00 0.00 77 1022.4
20260507073014 12 5 3.2 8.0 0.00 0.00 0.00 78 1022.3
20260507071520 12 350 3.2 6.4 0.00 0.00 0.00 79 1022.3
20260507070024 12 18 0.0 3.2 0.00 0.00 0.00 82 1022.3
20260507064524 12 109 0.0 3.2 0.00 0.00 0.00 84 1022.2
20260507063019 12 61 0.0 3.2 0.00 0.00 0.00 84 1022.2
20260507061518 12 104 1.6 3.2 0.00 0.00 0.00 83 1022.2
20260507060020 12 120 0.0 4.8 0.00 0.00 0.00 83 1022.2
20260507054526 12 105 0.0 3.2 0.00 0.00 0.00 82 1022.1
20260507053027 12 121 1.6 6.4 0.00 0.00 0.00 81 1022.0
20260507051512 12 317 0.0 3.2 0.00 0.00 0.00 83 1022.0
20260507050025 12 290 0.0 3.2 0.00 0.00 0.00 83 1022.0
20260507044523 12 290 0.0 1.6 0.00 0.00 0.00 82 1022.0
20260507043024 12 294 0.0 3.2 0.00 0.00 0.00 81 1021.8
20260507041526 12 138 0.0 3.2 0.00 0.00 0.00 80 1021.8
20260507040016 12 44 0.0 3.2 0.00 0.00 0.00 79 1021.5
20260507034520 13 26 1.6 3.2 0.00 0.00 0.00 78 1021.2
20260507033025 14 67 0.0 3.2 0.00 0.00 0.00 75 1021.0
20260507031527 15 110 0.0 3.2 0.00 0.00 0.00 73 1020.9
20260507030026 15 109 1.6 4.8 0.00 0.00 0.00 71 1020.9
20260507024516 16 134 0.0 6.4 0.00 0.00 0.00 69 1020.7
20260507023022 17 42 1.6 3.2 0.00 0.00 0.00 69 1020.6
20260507021524 17 106 1.6 11.3 0.00 0.00 0.00 66 1020.7
20260507020026 18 77 4.8 11.3 0.00 0.00 0.00 63 1020.6
20260507014523 18 107 1.6 14.5 0.00 0.00 0.00 64 1020.6
20260507013005 19 122 3.2 11.3 0.00 0.00 0.00 62 1020.6
20260507011505 19 119 3.2 12.9 0.00 0.00 0.00 62 1020.4
20260507010012 19 175 4.8 14.5 0.00 0.00 0.00 62 1020.4
20260507004518 20 135 4.8 11.3 0.00 0.00 0.00 61 1020.2
20260507003020 20 78 1.6 16.1 0.00 0.00 0.00 62 1020.3
20260507001504 20 122 4.8 14.5 0.00 0.00 0.00 60 1020.3
20260507000010 21 99 4.8 11.3 0.00 0.00 0.00 58 1020.2
20260506234515 21 49 1.6 9.7 0.00 0.00 0.00 58 1020.2
20260506233018 21 99 1.6 12.9 0.00 0.00 0.00 60 1020.2
20260506231528 21 89 1.6 8.0 0.00 0.00 0.00 58 1020.3
20260506230007 21 102 1.6 9.7 0.00 0.00 0.00 59 1020.4
20260506224512 21 99 4.8 14.5 0.00 0.00 0.00 57 1020.5
20260506223018 21 112 1.6 9.7 0.00 0.00 0.00 60 1020.7
20260506221522 21 130 4.8 12.9 0.00 0.00 0.00 58 1020.6
20260506220016 21 110 3.2 11.3 0.00 0.00 0.00 61 1020.6
20260506214512 21 67 3.2 14.5 0.00 0.00 0.00 61 1020.6
20260506213016 21 131 4.8 12.9 0.00 0.00 0.00 64 1020.7
20260506211521 21 92 3.2 11.3 0.00 0.00 0.00 66 1020.8
20260506210025 21 64 4.8 11.3 0.00 0.00 0.00 62 1021.0
20260506204511 21 176 3.2 12.9 0.00 0.00 0.00 63 1021.0